EST,Max TemperatureF,Mean TemperatureF,Min TemperatureF,Max Dew PointF,MeanDew PointF,Min DewpointF,Max Humidity, Mean Humidity, Min Humidity, Max Sea Level PressureIn, Mean Sea Level PressureIn, Min Sea Level PressureIn, Max VisibilityMiles, Mean VisibilityMiles, Min VisibilityMiles, Max Wind SpeedMPH, Mean Wind SpeedMPH, Max Gust SpeedMPH,PrecipitationIn, CloudCover, Events, WindDirDegrees
2014-2-1,39,30,21,30,21,16,92,68,44,30.28,30.15,29.92,10,9,3,13,6,18,0.01,4,,141
2014-2-2,43,37,30,32,29,23,89,75,60,30.09,29.92,29.83,10,10,10,10,5,16,0.00,8,,290
2014-2-3,30,25,19,23,18,12,88,76,63,30.28,30.18,30.10,10,10,10,8,5,,0.00,7,,344
2014-2-4,28,20,12,16,12,9,96,71,46,30.44,30.36,30.27,10,10,8,9,2,,0.00,4,,25
2014-2-5,25,18,10,21,16,7,100,81,62,30.26,29.95,29.69,10,4,0,10,5,18,0.26,8,,336
2014-2-6,19,10,1,9,4,-2,96,75,54,30.25,30.17,30.01,10,10,3,8,3,20,0.05,4,,341
2014-2-7,21,16,10,7,4,-2,76,60,43,30.18,30.14,30.10,10,10,2,16,8,20,0.00,3,,240
2014-2-8,19,14,9,5,1,-4,67,56,45,30.25,30.17,30.12,10,10,10,10,6,16,0.00,2,,255
2014-2-9,23,17,10,18,10,3,100,74,47,30.13,30.03,29.90,10,8,1,5,2,,0.00,6,,67
2014-2-10,19,14,9,18,9,1,92,71,49,30.16,30.03,29.89,10,8,2,9,5,,0.02,6,,316
2014-2-11,18,9,0,5,1,-6,91,69,47,30.44,30.27,30.16,10,10,3,8,4,17,0.00,5,,349
2014-2-12,23,7,-9,1,-6,-22,100,67,34,30.53,30.42,30.29,10,10,8,13,5,17,0.00,0,,114
2014-2-13,27,21,14,25,16,-2,100,72,43,30.29,29.88,29.16,10,6,1,13,8,21,0.01,6,,135
2014-2-14,30,25,19,21,19,18,100,79,58,29.69,29.27,29.01,10,4,0,20,9,29,0.13,8,,295
2014-2-15,30,26,21,25,20,16,92,80,68,29.79,29.73,29.65,10,9,3,14,5,18,0.08,7,,330
2014-2-16,25,17,9,14,3,-8,88,62,36,30.01,29.80,29.68,10,10,10,14,8,22,0.00,3,,312
2014-2-17,18,8,-2,-2,-7,-11,75,54,33,30.33,30.25,30.02,10,10,10,14,6,18,0.00,0,,354
2014-2-18,23,12,0,19,9,-9,100,68,36,30.26,30.06,29.95,10,7,1,20,9,29,0.00,6,,152
2014-2-19,34,23,12,32,22,12,100,82,63,30.04,29.84,29.68,10,8,1,24,11,33,0.01,5,,133
2014-2-20,43,34,25,32,25,19,100,71,41,30.16,30.08,29.89,10,10,3,14,5,22,0.02,3,,225
2014-2-21,37,34,30,36,32,28,100,91,82,30.04,29.84,29.65,10,8,0,28,13,36,0.75,8,Thunderstorm,136
2014-2-22,46,39,32,30,17,7,92,58,24,29.91,29.83,29.77,10,10,10,20,12,28,0.00,2,,238
2014-2-23,43,40,36,27,18,3,59,44,29,29.93,29.86,29.76,10,10,10,16,11,27,0.00,5,,242
2014-2-24,36,27,18,12,6,0,55,42,29,29.92,29.81,29.75,10,10,10,17,11,29,0.00,7,,296
2014-2-25,18,14,10,14,4,-2,88,67,46,29.93,29.90,29.85,10,8,1,13,6,17,0.00,6,,290
2014-2-26,19,11,3,12,1,-8,73,55,36,29.86,29.79,29.75,10,9,1,18,9,35,0.00,6,,240
2014-2-27,21,13,5,9,-2,-15,73,55,36,29.88,29.66,29.52,10,9,1,16,10,25,0.00,7,,197
2014-2-28,16,6,-4,-6,-13,-26,78,50,21,30.36,30.21,29.90,10,10,10,20,6,24,0.00,0,,244